Location: Contre
(49.7477°N, 2.0963°E)
Time: 16:01:09
(UTC+00:00)

Envisat - Pass Details

Date: 01 March 2024
Orbit: 762 x 764 km, 98.3° (Epoch: 22 April)

Event Time Altitude Azimuth Distance (km) Brightness Sun altitude
Rises 05:18:45 0° 1° (N) 3,244 6.3 -12.9°
Reaches altitude 10° 05:22:05 10° 338° (NNW) 2,313 5.3 -12.4°
Maximum altitude 05:24:44 14° 307° (NW) 2,017 4.7 -12.0°
Enters shadow 05:25:54 13° 292° (WNW) 2,076 4.7 -11.8°
